Poughkeepsie, NY

2:51 AM EDT on April 01, 2015 (GMT -0400)
Arlington | | Change Station
CLOSE
Current Station
Personal Weather Station
Location: Poughkeepsie, NY
Elevation: 220 ft
Nearby Weather Stations
Active Advisory: Special Statement

Elev 220 ft 41.71 °N, 73.90 °W | Updated 1 minute ago

Overcast
Overcast
29.8 °F
Feels Like 30 °F
N
0.0
Wind Variable Wind from North
Gusts 0.0 mph

Today
High -- | Low -- °F
--% Chance of Precip.
Yesterday
High -- | Low -- °F
Precip. -- in
6:39 AM 7:20 PM
Waxing Gibbous, 91% visible
Pressure 29.86 in
Visibility 7.0 miles
Clouds Overcast 300 ft
Windchill 30 °F
Dew Point 30 °F
Humidity 99%
Rainfall 0.00 in
Snow Depth Not available.
UV 0.0 out of 12
Pollen 7.00 out of 12
Air Quality Not available.
Flu Activity Not available.
METAR KPOU 010553Z AUTO 00000KT 7SM -RA OVC003 00/M01 A2986 RMK AO2 SLP110 P0000 60000 T00001011 10017 20000 53016

More Conditions Fewer Conditions

Pressure 29.86 in
Visibility 7.0 miles
Clouds Overcast 300 ft
Windchill 30 °F
Dew Point 30 °F
Humidity 99%
Rainfall 0.00 in
Snow Depth Not available.
UV 0.0 out of 12
Pollen 7.00 out of 12
Air Quality Not available.
Flu Activity Not available.
METAR KPOU 010553Z AUTO 00000KT 7SM -RA OVC003 00/M01 A2986 RMK AO2 SLP110 P0000 60000 T00001011 10017 20000 53016

More Conditions Fewer Conditions

10-Day Weather Forecast

Almanac

Astronomy

Apr. 01, 2015 Rise Set
Actual Time
Civil Twilight
Nautical Twilight
Astronomical Twilight
Moon
Length of Visible Light
Length of Day
Tomorrow will be .
, % of the Moon is Illuminated

Today's Extremes

State Highs State Lows

Community

WunderPhotos

Upload Photos

1,809,924 photos uploaded!

WunderBlogs® & News

Nearby

Air Quality

  Air Quality AQ Index Pollutant
Not available.

Snow Depth

Station Depth Elevation

Earthquake Activity

City Distance Mag. Time & Date
Minimum magnitude displayed is 2.5.

Coastal Water Temperatures

Place Temperature

Stations

Nearby Weather Stations

Station Location Temp. Windchill Dew Point Humidity Wind Precip. Elev Updated Type
                   
Special Statement
Statement as of 10:31 PM EDT on March 31, 2015

... Areas of black ice possible overnight...
while precipitation has ended across the region... skies were
clearing which is allowing temperatures to drop below freezing
across Ulster... Dutchess and Litchfield counties. The combination
of wet roadways and walkways with below freezing temperatures may
result in black ice developing on untreated surfaces. Motorists
and pedestrians are urged to travel with care overnight into
Wednesday morning.